AirNav   Pilot Hours Calculator
 
 1077 users online  

1MU9 Nielsens Med Evac Heliport
Saint Charles, Missouri, USA

GOING TO SAINT CHARLES?


FAA INFORMATION EFFECTIVE 07 OCTOBER 2021

Location

FAA Identifier: 1MU9
Lat/Long: 38-56-07.1760N 090-28-35.4210W
38-56.119600N 090-28.590350W
38.9353267,-90.4765058
(estimated)
Elevation: 425 ft. / 130 m (estimated)
Variation: 01E (1995)
From city: 6 miles N of SAINT CHARLES, MO
Time zone: UTC -5 (UTC -6 during Standard Time)
Zip code: 62037

Heliport Operations

Heliport use: Private use, FOR MEDICAL USE ONLY.
Activation date: 04/1997
Control tower: no
ARTCC: KANSAS CITY CENTER
FSS: SAINT LOUIS FLIGHT SERVICE STATION
Attendance: UNATNDD
Segmented circle: no

Heliport Communications

WX ASOS at SET (2.2 nm E): 118.075 (636-250-4590)
WX ASOS at STL (12 nm SE): PHONE 314-890-4790
WX ASOS at SUS (18 nm SW): 134.8 (314-890-7255)

Nearby radio navigation aids

VOR radial/distance  VOR name  Freq  Var
STLr002/4.5ST LOUIS VORTAC117.4001E
FTZr053/27.3FORISTELL VORTAC110.8005E
TOYr290/28.6TROY VORTAC116.0004E

 
NDB name  Hdg/Dist  Freq  Var  ID
CIVIC MEMORIAL278/19.826301WCVM -.-. ...- --

Heliport Services

Runway Information

Helipad H1

Dimensions: 100 x 100 ft. / 30 x 30 m
Surface: turf
Traffic pattern: leftleft

Heliport Ownership and Management from official FAA records

Ownership: Privately-owned
Owner: CHERRY POINT LLC
9024 ST CHARLES ROCK ROAD
ST LOUIS, MO 63114
Phone 314-490-4433
Manager: SCOTT NIELSEN
9024 ST CHARLES ROCK ROAD
ST LOUIS, MO 63114
Phone 314-490-4433

Additional Remarks

A52-H1 50 FT TREES 150 FT S OF HELIPORT.
FOR CD CTC ST LOUIS APCH AT 314-890-1018.

Instrument Procedures

There are no published instrument procedures at 1MU9.

Some nearby airports with instrument procedures:

KSET - St Charles County Smartt Airport (2 nm E)
KSTL - St Louis Lambert International Airport (12 nm SE)
1H0 - Creve Coeur Airport (13 nm S)
KSUS - Spirit of St Louis Airport (18 nm SW)
KALN - St Louis Regional Airport (20 nm E)
 
Loc | Ops | Rwys | IFR | FBO | Links
Com | Nav | Svcs | Stats | Notes
Area around 1MU9 (Nielsens Med Evac Heliport)
 
Road maps at: MapQuest Bing Google
 
Aerial photo
No photo
 
Sectional chart

 
Airport distance calculator
Flying to Nielsens Med Evac Heliport? Find the distance to fly.

From to 1MU9

Sunrise and sunset
Times for 21-Oct-2021
 Local
(UTC-5)
 Zulu
(UTC)
Morning civil twilight06:5111:51
Sunrise07:1912:19
Sunset18:1523:15
Evening civil twilight18:4223:42

Current date and time
Zulu (UTC)  21-Oct-2021 12:32:26
Local (UTC-5)  21-Oct-2021 07:32:26
 
METAR
KSET 
2nm E 
211154Z AUTO 26009KT 10SM CLR 11/05 A3002 RMK AO2 SLP161 60000 T01110050 10194 20106 53008
KSTL 
12nm SE 
211151Z 28010KT 10SM CLR 11/04 A3002 RMK AO2 SLP160 70005 T01110044 10194 20111 53005
KSUS 
19nm SW 
211154Z 26006KT 10SM CLR 10/06 A3002 RMK AO2 SLP163 T01000056 10183 20089 53006
TAF
KSTL 
12nm SE 
211132Z 2112/2218 27012G18KT P6SM SCT025 TEMPO 2113/2115 BKN025 FM211500 29014G22KT P6SM BKN025 FM220000 31008KT P6SM BKN030 FM220900 30005KT P6SM BKN025
KSUS 
19nm SW 
211132Z 2112/2212 27010G16KT P6SM SCT025 TEMPO 2113/2115 BKN025 FM211500 29014G22KT P6SM BKN025 FM220000 30007KT P6SM BKN030 FM220900 VRB04KT P6SM BKN025
NOTAMs
Click for the latest NOTAMs
NOTAMs are issued by the DoD/FAA and will open in a separate window not controlled by AirNav.

 

 
 

Would you like to see your business listed on this page?

 If your business provides an interesting product or service to pilots, flight crews, aircraft, or users of the Nielsens Med Evac Heliport, you should consider listing it here.  To start the listing process, click on the button below
 
Add a business
 

Other Pages about Nielsens Med Evac Heliport

Update a link
 
Copyright © AirNav, LLC. All rights reserved. Privacy Policy  Contact